Location: Bambrugge
(50.9212°N, 3.9299°E)
Time: 00:43:34
(UTC+00:00)

Helios 1A Rocket - Pass Details

Date: 21 August 2024
Orbit: 512 x 533 km, 98.3° (Epoch: 07 September)

Event Time Altitude Azimuth Distance (km) Brightness Sun altitude
Exits shadow 00:19:36 25° 71° (ENE) 1,125 4.6 -26.7°
Maximum altitude 00:19:54 25° 64° (ENE) 1,118 4.7 -26.7°
Drops below altitude 10° 00:23:06 10° 8° (N) 1,806 6.5 -26.6°
Sets 00:25:28 0° 355° (N) 2,698 7.5 -26.5°
